Temperature
13 13 13 13 14 14 14 14 14 14 15 15 15 15 14 14 14 14 14 14 14 14 15 15 15 15 15 14 15 15 15 15 15 15 15 15 15 15 15 14 14 14 14
14 13 13 13 13 14 14 14 14 14 14 14 14 14 14 14 14 14 14 14 14 14 14 14 14 14 14 14 14 14 15 14 14 14 14 15 14 14 14 14 14 14 14
13 13 13 13 13 13 14 14 14 14 14 14 14 14 14 14 14 14 14 14 14 14 14 14 14 14 14 14 14 14 14 14 14 14 14 14 14 14 14 14 14 14 14
13 13 13 13 13 13 13 14 14 14 14 14 14 14 14 14 14 14 13 13 13 14 14 14 14 14 14 14 14 14 14 14 14 14 14 14 14 13 14 14 14 14 14
13 13 13 13 13 13 13 13 13 13 13 13 13 14 13 13 13 13 13 13 13 13 13 14 14 14 14 14 14 14 14 14 14 14 14 14 13 13 13 13 13 13 14
12 12 12 12 12 12 13 13 13 13 13 13 13 13 13 13 13 13 13 13 13 13 13 13 13 13 13 13 13 13 13 13 13 13 13 13 13 13 13 13 13 13 13
12 12 12 12 12 12 12 12 13 13 13 13 13 13 13 13 13 13 13 13 13 13 13 13 13 13 13 13 13 13 13 13 13 13 13 13 13 13 13 13 13 13 13
12 11 11 12 12 12 12 12 12 12 12 12 13 13 13 13 13 13 13 13 13 13 13 13 13 13 13 13 13 13 13 13 13 12 12 12 12 12 12 13 13 13 13
11 11 11 11 11 12 12 12 12 12 12 12 12 12 13 13 13 13 13 13 13 13 13 13 12 12 12 12 12 12 12 12 12 12 12 12 12 12 12 12 12 12 12
10 10 11 11 11 11 11 11 12 12 12 12 12 12 12 12 12 12 12 12 12 12 12 12 12 12 12 12 12 12 12 12 12 12 12 12 12 12 12 12 12 12 12
10 10 10 10 10 11 11 11 11 11 12 12 12 12 12 12 12 12 12 12 12 12 12 12 12 12 12 12 12 12 12 12 12 12 11 11 11 11 11 11 11 12 12
9 9 9 10 10 10 10 10 11 11 11 11 12 12 12 12 12 12 12 12 12 12 12 12 12 12 12 12 11 11 11 11 11 11 11 11 11 11 11 11 11 11 11
9 9 9 9 9 9 10 10 10 10 10 11 11 11 11 11 11 12 12 12 12 12 12 11 11 11 11 11 11 11 11 11 11 11 10 10 10 10 11 11 11 11 11
8 8 8 8 9 9 9 9 9 10 10 10 10 11 11 11 11 11 11 11 11 11 11 11 11 11 11 11 11 11 10 10 10 10 10 10 10 10 10 10 10 10 10
8 8 8 8 8 8 8 9 9 9 9 9 10 10 10 10 11 11 11 11 11 11 11 10 11 10 10 10 10 10 10 10 10 10 10 10 10 10 10 10 9 9 10
8 8 8 8 8 8 8 8 8 8 8 9 9 9 9 10 10 10 10 10 10 10 10 10 10 10 10 10 10 10 10 10 9 9 9 9 9 9 9 9 9 9 9
7 7 7 7 7 7 7 8 8 8 8 8 8 8 9 9 9 9 10 10 10 9 10 9 9 9 9 9 9 9 9 9 9 9 9 9 9 9 9 9 9 9 9
7 7 6 6 6 6 7 7 7 7 7 7 8 8 8 8 8 9 9 9 9 9 9 9 9 9 9 9 9 9 9 9 8 8 8 8 8 8 8 8 8 8 8
6 6 6 6 6 6 6 6 6 6 7 7 7 7 7 7 7 8 8 8 8 8 8 8 8 8 8 8 8 8 8 8 8 8 8 8 8 8 8 8 8 8 8
5 5 5 5 5 5 5 5 5 6 6 6 6 6 6 7 7 7 7 7 7 7 8 8 8 7 8 8 8 7 7 7 7 7 7 7 7 7 7 7 7 7 7
5 5 5 5 5 5 5 5 5 5 5 5 6 6 6 6 6 6 6 7 7 7 7 7 7 7 7 7 7 7 6 6 6 7 7 7 7 7 7 7 7 7 7
4 4 4 4 4 4 4 4 4 4 4 4 5 5 5 5 5 6 6 6 6 6 6 6 6 6 6 6 6 6 5 5 6 6 6 6 6 6 6 6 6 6 6
3 3 3 3 3 3 3 3 3 3 4 4 4 4 4 5 5 5 5 5 5 5 5 6 6 6 6 5 5 5 5 5 5 5 5 5 5 5 5 5 5 5 6
2 2 2 2 2 3 3 3 3 3 3 3 3 3 4 4 4 4 4 4 5 5 5 5 5 5 5 5 5 5 5 5 4 4 4 5 5 5 5 5 5 5 5
1 1 2 2 2 2 2 2 2 2 2 3 3 3 3 3 3 3 4 4 4 4 4 4 4 4 4 4 5 5 5 4 4 4 3 4 4 5 5 5 5 5 5
0 0 1 1 1 1 1 1 1 2 2 2 2 2 2 2 3 3 3 3 3 3 3 4 4 4 4 4 4 4 4 4 4 4 3 3 3 4 4 4 4 4 4
Wind_Speed
2 2 4 6 8 9 10 11 12 13 13 14 14 14 14 15 15 15 15 16 16 17 17 18 18 18 19 19 19 19 19 18 18 19 19 19 19 19 18 17 17 16 19
3 3 5 7 9 10 11 12 12 13 13 13 13 14 14 14 14 15 15 15 15 16 17 17 17 17 18 18 18 18 18 18 18 18 18 17 18 18 18 17 17 16 18
5 5 6 8 9 10 11 12 12 13 13 13 13 13 14 14 14 14 15 15 15 16 16 16 16 16 17 17 17 17 17 17 17 17 16 14 15 17 17 17 17 17 17
6 6 6 8 10 10 11 12 12 12 13 13 13 13 14 14 14 14 14 14 15 15 15 15 15 15 15 15 16 16 16 16 16 16 14 13 13 16 17 17 17 17 17
6 6 6 9 10 11 11 11 11 12 12 12 13 13 14 14 15 14 14 13 14 14 14 15 14 14 15 15 15 16 16 16 15 14 13 13 13 16 17 17 17 17 17
6 6 7 10 10 11 11 11 11 11 12 12 12 13 13 14 14 14 13 13 13 14 14 14 14 14 14 14 15 15 15 15 14 13 12 12 12 15 16 16 16 16 16
6 7 7 10 10 10 11 11 11 12 11 11 12 12 13 14 14 14 13 13 13 13 13 13 13 13 13 14 14 14 14 14 13 12 11 12 12 15 15 15 15 15 15
7 7 7 9 10 10 10 11 11 11 12 11 11 12 12 13 13 13 12 13 12 12 13 13 13 13 12 13 13 13 13 13 12 11 11 11 12 13 14 14 14 14 14
8 7 7 7 8 9 10 10 11 11 11 11 11 11 11 12 12 12 12 12 12 12 12 12 12 12 12 13 13 14 14 13 12 10 10 10 12 13 13 13 13 13 13
7 6 7 7 8 8 8 9 10 11 11 11 11 12 11 11 12 12 11 11 12 12 12 12 12 11 12 12 13 14 13 12 12 10 10 10 12 12 13 13 12 12 12
6 5 6 7 7 7 8 8 9 10 11 11 11 12 11 11 11 10 10 11 11 11 11 11 11 11 11 12 12 12 12 11 11 9 9 10 11 12 12 12 11 11 11
5 4 4 5 7 7 7 8 9 9 9 10 10 10 9 10 10 9 11 11 11 11 10 10 10 10 10 10 10 11 11 11 9 8 8 10 10 11 11 11 11 11 11
6 5 4 5 6 7 6 7 7 7 7 8 9 9 9 9 9 9 9 9 10 10 9 9 9 10 9 9 8 9 10 10 8 8 8 9 10 10 11 11 11 11 10
6 5 4 5 6 6 6 6 6 6 6 6 6 7 8 7 6 7 7 7 7 7 8 8 7 8 9 9 8 9 9 8 8 7 8 9 9 9 10 10 10 10 10
6 5 4 5 6 6 5 5 5 5 5 5 6 6 7 6 5 5 6 6 6 6 6 6 6 6 7 7 7 7 7 8 8 8 7 8 8 8 8 9 9 9 9
6 5 5 5 6 6 5 5 4 4 5 5 5 6 6 6 5 5 5 5 5 5 5 6 5 5 5 5 5 6 6 7 8 7 7 7 7 7 7 7 7 8 8
6 5 5 6 5 5 5 5 5 4 5 5 5 6 6 6 6 5 4 4 3 4 5 6 6 6 5 4 4 4 5 6 6 7 7 7 6 6 6 6 6 7 7
5 5 5 5 5 4 4 5 5 4 4 4 5 5 6 6 6 5 4 3 4 5 5 4 4 3 3 2 2 2 3 4 5 6 6 6 6 6 6 5 5 6 5
5 6 5 4 5 4 4 4 4 4 4 3 4 4 5 5 5 5 4 3 4 5 4 3 3 2 3 2 2 2 2 3 3 4 5 5 6 6 5 5 4 5 5
4 4 4 4 4 4 3 3 3 3 2 2 3 3 4 4 5 4 3 3 4 3 2 2 3 2 2 2 2 2 2 2 3 3 3 4 5 5 4 4 4 3 3
4 4 3 3 2 3 2 2 2 1 1 1 1 2 3 4 4 4 3 3 3 2 2 3 2 3 2 2 3 2 3 2 2 1 2 3 3 4 4 4 5 4 3
3 3 3 2 2 2 1 1 1 1 1 1 1 1 2 3 4 3 3 3 2 2 2 2 3 2 1 2 2 3 1 1 2 1 1 1 1 3 3 3 4 3 3
2 2 2 2 2 2 2 2 2 2 2 1 0 0 0 2 3 3 3 3 2 2 2 2 3 3 3 1 1 3 3 2 1 2 1 0 0 1 1 2 2 3 2
1 1 2 2 2 2 2 2 2 2 2 2 2 1 1 2 2 3 3 3 3 3 2 2 2 2 4 3 1 0 1 3 2 1 2 1 1 1 1 1 2 3 3
1 1 1 2 2 1 1 2 2 1 1 1 1 2 2 2 2 2 3 3 3 3 3 3 2 1 2 3 3 1 1 1 1 3 2 2 2 2 2 2 3 4 4
2 2 1 1 1 1 0 0 1 1 1 1 2 2 2 1 2 3 3 3 3 3 3 4 4 3 3 3 3 2 2 2 2 2 3 2 3 3 3 3 3 5 5
Wind_Direction
211 238 167 131 116 108 101 100 97 97 98 96 96 97 95 95 95 94 94 94 91 88 86 84 83 83 83 82 81 80 77 75 74 75 76 79 81 83 82 80 78 77 80
165 164 143 129 118 112 105 102 99 98 99 98 96 96 97 97 96 96 95 95 93 90 87 85 84 84 84 83 82 81 78 75 76 76 74 74 79 82 82 82 81 83 82
129 135 128 119 118 116 111 106 102 99 98 99 97 97 97 97 96 96 95 94 92 90 89 87 86 84 84 82 82 81 79 78 78 76 73 70 77 82 82 82 82 83 83
120 123 127 118 111 112 111 108 106 103 98 99 99 98 99 97 94 93 94 94 91 90 90 89 87 84 82 83 82 81 80 80 78 77 71 71 77 83 82 81 81 81 82
100 107 117 115 113 109 107 108 109 109 107 104 100 99 99 98 96 93 92 94 93 92 92 91 88 84 82 82 81 81 83 82 79 74 74 73 78 85 84 82 81 80 80
92 104 116 113 109 107 106 106 106 109 110 107 103 101 99 99 97 95 94 94 94 94 93 92 89 85 84 83 82 83 85 82 76 70 74 74 78 86 86 84 82 81 79
92 96 111 112 109 106 103 100 102 101 103 105 103 102 102 100 99 98 96 95 94 93 94 93 91 88 85 87 85 84 86 84 77 70 71 73 80 88 88 87 85 83 81
97 91 99 104 101 102 102 98 95 98 98 98 101 103 102 102 101 99 98 97 98 96 96 96 94 91 88 88 86 86 85 85 79 75 72 74 83 90 91 88 87 85 84
95 89 86 92 92 93 96 96 97 95 95 95 93 100 102 102 103 100 98 97 98 98 97 99 97 92 91 88 87 88 85 84 79 75 76 76 84 88 89 91 89 87 85
90 83 82 83 84 83 89 95 96 95 91 88 85 86 94 97 98 97 95 97 98 98 98 98 98 95 92 89 87 86 83 80 75 74 75 78 84 86 86 87 91 90 88
97 86 80 81 81 83 86 91 93 92 88 87 84 82 85 88 88 89 95 97 97 96 96 97 95 92 91 88 84 82 77 74 74 72 78 81 86 87 87 85 87 90 91
128 112 89 89 87 84 82 82 83 84 85 85 84 81 81 89 90 89 94 92 90 88 88 88 86 85 84 81 81 80 76 74 73 70 79 84 88 89 89 88 88 89 89
141 126 108 101 97 91 87 87 81 84 85 85 82 85 86 88 89 87 85 83 84 81 75 77 76 74 79 82 83 83 83 79 74 71 78 88 93 94 91 90 88 88 88
137 133 120 106 102 98 99 95 90 87 84 80 81 89 91 88 87 88 87 83 80 82 77 74 75 75 78 81 86 87 85 83 78 73 74 84 91 93 93 91 87 85 86
143 144 141 121 114 110 106 102 97 92 91 88 85 85 94 96 98 94 90 88 83 84 84 78 76 77 79 80 83 86 85 84 85 80 76 82 90 92 93 93 90 85 83
155 153 148 138 124 118 108 104 106 102 102 99 92 89 93 99 101 102 95 89 88 92 94 92 85 85 83 83 78 80 85 89 88 85 81 82 87 93 94 97 94 89 85
158 149 149 144 127 122 115 112 115 114 109 102 101 97 91 96 97 104 103 96 94 104 101 92 83 81 81 78 75 75 82 87 90 89 89 86 83 84 90 97 97 91 89
147 145 146 142 131 124 118 117 119 121 116 109 109 104 99 98 98 99 103 101 100 102 100 99 93 90 84 83 80 68 73 85 89 93 96 93 87 82 79 85 95 92 91
149 148 148 133 139 138 124 118 120 120 116 117 113 106 105 103 103 99 104 99 108 99 95 110 94 108 110 93 91 71 71 79 84 92 94 98 96 90 83 76 80 86 91
122 124 134 133 137 135 121 108 100 95 101 114 122 118 117 116 112 103 105 99 104 105 99 107 113 88 115 118 101 66 44 64 82 89 99 103 106 101 94 86 80 72 77
100 106 115 121 131 132 139 146 146 168 153 112 122 122 129 129 126 114 110 111 106 119 134 130 129 115 86 88 88 63 21 31 63 72 88 96 98 106 101 99 94 78 65
115 114 116 124 134 132 149 167 162 160 173 165 121 113 138 137 136 131 118 127 123 105 125 132 130 131 123 114 117 120 78 352 349 358 42 105 103 104 100 112 106 94 85
114 131 131 114 125 131 103 96 93 67 46 50 357 302 224 158 149 144 137 131 140 138 169 171 159 148 164 191 141 137 150 201 250 307 328 352 146 109 106 142 138 144 140
150 137 124 123 105 97 107 127 148 175 200 223 217 235 243 195 174 171 166 158 160 161 179 199 179 169 165 181 204 88 158 153 166 234 291 295 277 219 223 232 206 204 206
112 116 120 109 82 73 110 148 173 223 225 221 210 214 230 227 212 203 193 184 185 185 190 192 201 208 183 188 185 172 123 76 155 173 225 261 286 267 255 252 233 224 225
60 66 70 82 48 44 81 177 198 229 237 215 224 223 233 252 238 232 223 211 210 206 207 208 205 212 213 206 203 194 182 178 188 177 200 225 251 264 267 252 232 223 229
Height
1529 1531 1533 1534 1535 1536 1537 1538 1538 1539 1540 1540 1541 1541 1542 1542 1543 1543 1544 1544 1545 1545 1545 1546 1546 1546 1547 1547 1547 1547 1547 1547 1547 1547 1547 1548 1548 1548 1548 1548 1548 1548 1548
1528 1530 1532 1534 1536 1537 1538 1538 1539 1540 1540 1541 1541 1542 1542 1543 1544 1544 1545 1545 1546 1546 1546 1547 1547 1548 1548 1548 1549 1549 1549 1549 1549 1549 1549 1550 1550 1550 1550 1550 1550 1550 1550
1527 1530 1532 1533 1535 1537 1538 1538 1539 1540 1541 1541 1542 1542 1543 1544 1544 1545 1545 1546 1546 1547 1547 1548 1548 1549 1549 1550 1550 1550 1550 1551 1551 1551 1551 1551 1552 1552 1552 1552 1552 1552 1553
1528 1530 1531 1533 1535 1536 1537 1538 1539 1540 1541 1541 1542 1543 1543 1544 1545 1545 1546 1547 1547 1548 1548 1549 1549 1550 1550 1551 1551 1551 1552 1552 1552 1553 1553 1553 1553 1554 1554 1554 1554 1554 1554
1527 1529 1531 1533 1535 1536 1537 1538 1539 1540 1541 1542 1542 1543 1544 1544 1545 1545 1546 1547 1548 1548 1549 1549 1550 1550 1551 1551 1552 1552 1553 1553 1554 1554 1554 1554 1555 1555 1555 1555 1556 1556 1556
1527 1529 1531 1533 1534 1536 1537 1538 1539 1540 1541 1541 1542 1543 1544 1544 1545 1546 1546 1547 1548 1549 1550 1550 1551 1551 1552 1552 1553 1553 1554 1554 1555 1555 1555 1556 1556 1557 1557 1557 1557 1557 1558
1527 1529 1531 1532 1534 1535 1536 1537 1538 1539 1540 1541 1542 1543 1543 1544 1545 1546 1547 1547 1548 1549 1550 1550 1551 1552 1552 1553 1553 1554 1554 1555 1556 1556 1557 1557 1558 1558 1558 1558 1558 1559 1559
1527 1528 1530 1532 1533 1535 1536 1537 1538 1539 1540 1541 1542 1542 1543 1544 1545 1546 1547 1547 1548 1549 1550 1551 1551 1552 1553 1553 1554 1555 1555 1556 1556 1557 1558 1558 1559 1559 1559 1559 1559 1560 1560
1527 1528 1530 1532 1533 1534 1535 1536 1537 1538 1539 1540 1541 1542 1543 1544 1545 1546 1546 1547 1548 1549 1550 1551 1551 1552 1553 1553 1554 1555 1556 1556 1557 1557 1558 1559 1560 1560 1560 1560 1560 1561 1561
1526 1528 1529 1531 1532 1533 1534 1535 1536 1537 1538 1539 1540 1542 1543 1543 1544 1545 1546 1547 1548 1549 1549 1550 1551 1552 1553 1553 1554 1555 1556 1557 1557 1558 1559 1559 1560 1560 1561 1561 1561 1561 1562
1525 1527 1528 1530 1531 1532 1534 1534 1535 1536 1537 1538 1540 1541 1542 1543 1544 1544 1546 1547 1547 1548 1549 1550 1551 1552 1552 1553 1554 1555 1556 1557 1557 1558 1559 1560 1560 1561 1561 1561 1561 1562 1562
1523 1525 1527 1528 1530 1531 1532 1533 1534 1535 1536 1537 1539 1540 1541 1542 1543 1544 1545 1546 1546 1547 1548 1549 1550 1551 1552 1553 1554 1555 1556 1557 1557 1558 1559 1560 1560 1561 1561 1561 1562 1562 1562
1522 1524 1525 1527 1528 1530 1531 1532 1533 1534 1535 1536 1537 1539 1540 1541 1542 1543 1544 1545 1546 1546 1547 1548 1549 1550 1551 1553 1554 1554 1555 1556 1557 1558 1559 1559 1560 1560 1561 1561 1561 1562 1562
1520 1522 1524 1526 1527 1529 1529 1530 1531 1532 1534 1535 1536 1538 1539 1539 1540 1541 1542 1543 1544 1545 1546 1547 1548 1549 1550 1552 1553 1554 1555 1555 1556 1557 1558 1559 1559 1560 1560 1560 1561 1561 1562
1519 1520 1522 1524 1526 1527 1528 1529 1530 1531 1532 1533 1535 1536 1537 1538 1539 1540 1541 1542 1543 1544 1545 1546 1547 1548 1549 1550 1551 1553 1554 1554 1555 1556 1557 1558 1558 1559 1559 1560 1560 1561 1561
1517 1519 1520 1522 1524 1525 1526 1527 1528 1529 1531 1532 1533 1534 1535 1536 1537 1538 1540 1540 1542 1543 1544 1545 1546 1547 1548 1549 1550 1551 1552 1553 1554 1555 1556 1557 1557 1558 1558 1559 1559 1560 1560
1515 1517 1519 1520 1522 1523 1524 1526 1527 1528 1529 1530 1532 1533 1533 1534 1536 1537 1538 1539 1540 1541 1542 1543 1544 1545 1547 1547 1549 1550 1551 1552 1553 1554 1554 1555 1556 1557 1557 1558 1558 1558 1559
1514 1515 1517 1519 1520 1521 1522 1523 1525 1526 1527 1528 1530 1531 1531 1532 1533 1534 1535 1536 1538 1539 1540 1541 1542 1544 1545 1546 1547 1548 1549 1550 1551 1552 1553 1554 1554 1555 1555 1556 1557 1557 1557
1512 1513 1515 1516 1518 1519 1520 1521 1523 1524 1525 1526 1528 1529 1529 1530 1531 1532 1533 1534 1535 1536 1538 1539 1540 1541 1543 1544 1545 1546 1547 1548 1549 1550 1551 1552 1552 1553 1554 1554 1555 1555 1556
1510 1511 1513 1514 1516 1517 1518 1519 1520 1521 1522 1524 1525 1526 1527 1528 1528 1530 1531 1531 1532 1534 1535 1536 1537 1539 1540 1542 1543 1544 1545 1546 1547 1548 1549 1550 1550 1551 1552 1552 1553 1553 1554
1507 1509 1510 1511 1513 1514 1515 1516 1517 1518 1520 1521 1522 1523 1524 1525 1526 1527 1528 1529 1530 1531 1532 1534 1534 1536 1537 1539 1540 1542 1543 1544 1545 1546 1546 1547 1548 1549 1549 1550 1550 1551 1551
1504 1506 1507 1509 1510 1511 1513 1514 1515 1516 1517 1518 1519 1520 1521 1522 1524 1524 1525 1526 1527 1528 1529 1530 1532 1532 1534 1535 1537 1538 1540 1542 1542 1542 1543 1544 1545 1546 1546 1547 1548 1548 1548
1502 1503 1504 1506 1507 1509 1510 1512 1513 1513 1514 1515 1516 1517 1518 1519 1520 1521 1522 1523 1524 1525 1526 1527 1529 1529 1530 1532 1533 1535 1536 1536 1538 1539 1539 1540 1541 1542 1543 1544 1544 1545 1545
1499 1501 1502 1504 1505 1506 1507 1508 1509 1510 1510 1511 1513 1514 1515 1516 1517 1518 1519 1519 1520 1521 1522 1523 1525 1526 1527 1528 1530 1531 1532 1532 1534 1534 1536 1536 1537 1538 1539 1540 1540 1541 1542
1498 1499 1500 1501 1502 1503 1504 1505 1506 1507 1508 1509 1510 1511 1512 1513 1514 1515 1515 1516 1517 1518 1518 1520 1521 1522 1524 1525 1525 1526 1528 1529 1529 1530 1530 1532 1533 1534 1535 1536 1536 1537 1538
1496 1496 1497 1498 1499 1500 1501 1502 1503 1504 1504 1505 1506 1507 1507 1508 1509 1511 1511 1512 1513 1514 1514 1515 1516 1518 1519 1521 1522 1522 1523 1524 1525 1525 1526 1526 1527 1529 1530 1531 1532 1532 1533